GLOBALSTAR M087

Last updated on Sat Sep 05 2026 00:03:16 GMT+0000 (Coordinated Universal Time)

1 52888U 22064A 26247.26742006 -.00000090 00000+0 78893-4 0 9991 2 52888 51.9989 181.6977 0000572 86.0521 274.0411 12.62262691201121
UTC large
Height (km)
Speed (km/s)
/
Latitude / Longitude
Inclination (degrees)
Orbital Period (minutes)
Azimuth
Elevation
Range (km)
Doppler Factor

Next 0 passes for location: London (51.5072 / 0.1276)

No passes found over London.
GLOBALSTAR M087